Weather History for KSJS - February, 2014

Change the Weather History Date:

Friday, February 28, 2014

  Actual Average Record
Temperature  
Mean Temperature 26 °F -  
Max Temperature 41 °F - - ()
Min Temperature 12 °F - - ()
Degree Days  
Heating Degree Days 38    
Moisture  
Dew Point 8 °F    
Average Humidity 46    
Maximum Humidity 70    
Minimum Humidity 26    
Precipitation  
Precipitation 0.00 in - - ()
Sea Level Pressure  
Sea Level Pressure 30.13 in    
Wind  
Wind Speed 3 mph (NE)    
Max Wind Speed 7 mph    
Max Gust Speed -    
Visibility 10 miles    
Events      
Averages and records for this station are not official NWS values.
T = Trace of Precipitation, MM = Missing Value Source: NWS Daily Summary

Daily Weather History Graph

Daily Weather History Graph

Search for Another Location

Airport or City:

Trip Planner

Search our weather history database for the weather conditions in past years. The results will help you decide how hot, cold, wet, or windy it might be!

Date:

Astronomy

Feb. 28, 2014 Rise Set
Actual Time 7:03 AM EST 6:23 PM EST
Civil Twilight 6:37 AM EST 6:49 PM EST
Nautical Twilight 6:06 AM EST 7:20 PM EST
Astronomical Twilight 5:36 AM EST 7:50 PM EST
Moon 6:17 AM EST (2/28) 5:58 PM EST (2/28)
Length of Visible Light 12h 12m
Length of Day
11h 19m
Waning Crescent, 1% of the Moon is Illuminated
Feb 28
Waning Crescent
Mar 1
New
Mar 8
First Quarter
Mar 16
Full
Mar 23
Last Quarter

Hourly Weather History & Observations

Time (EST) Temp. Windchill Dew Point Humidity Pressure Visibility Wind Dir Wind Speed Gust Speed Precip Events Conditions
12:15 AM 19.9 °F - 2.3 °F 46% 30.09 in 10.0 mi Calm Calm - N/A   Clear
12:35 AM 19.8 °F 14.7 °F 2.7 °F 48% 30.10 in 10.0 mi NNE 3.5 mph - N/A   Clear
12:55 AM 18.5 °F 13.3 °F 3.0 °F 51% 30.10 in 10.0 mi NNE 3.5 mph - N/A   Clear
1:15 AM 17.6 °F 10.7 °F 3.4 °F 54% 30.10 in 10.0 mi NE 4.6 mph - N/A   Clear
1:35 AM 17.2 °F 11.9 °F 3.7 °F 56% 30.10 in 10.0 mi NNE 3.5 mph - N/A   Clear
1:55 AM 16.7 °F 9.6 °F 3.7 °F 57% 30.11 in 10.0 mi NNE 4.6 mph - N/A   Clear
2:15 AM 16.7 °F 9.6 °F 3.9 °F 57% 30.11 in 10.0 mi NNE 4.6 mph - N/A   Clear
2:35 AM 16.3 °F 9.2 °F 4.1 °F 59% 30.10 in 10.0 mi NE 4.6 mph - N/A   Clear
2:55 AM 16.3 °F 9.2 °F 4.3 °F 59% 30.11 in 10.0 mi NE 4.6 mph - N/A   Clear
3:15 AM 15.8 °F 7.2 °F 4.5 °F 61% 30.11 in 10.0 mi NE 5.8 mph - N/A   Clear
3:35 AM 15.4 °F 6.8 °F 4.5 °F 62% 30.12 in 10.0 mi NE 5.8 mph - N/A   Clear
3:55 AM 15.3 °F 6.6 °F 4.1 °F 61% 30.13 in 10.0 mi NNE 5.8 mph - N/A   Clear
4:15 AM 14.9 °F 7.5 °F 4.1 °F 62% 30.13 in 10.0 mi NNE 4.6 mph - N/A   Clear
4:35 AM 15.1 °F 6.4 °F 3.7 °F 61% 30.14 in 10.0 mi NE 5.8 mph - N/A   Clear
4:55 AM 14.9 °F 5.0 °F 4.1 °F 62% 30.14 in 10.0 mi NE 6.9 mph - N/A   Clear
5:15 AM 14.7 °F 4.8 °F 4.1 °F 63% 30.14 in 10.0 mi NE 6.9 mph - N/A   Clear
5:35 AM 14.4 °F 4.3 °F 4.1 °F 64% 30.15 in 10.0 mi ENE 6.9 mph - N/A   Clear
5:55 AM 14.4 °F 6.9 °F 3.9 °F 63% 30.15 in 10.0 mi NE 4.6 mph - N/A   Clear
6:15 AM 13.6 °F 6.0 °F 4.3 °F 66% 30.15 in 10.0 mi NE 4.6 mph - N/A   Clear
6:35 AM 13.6 °F 7.7 °F 4.5 °F 67% 30.16 in 10.0 mi NE 3.5 mph - N/A   Clear
6:55 AM 12.9 °F 5.2 °F 4.6 °F 70% 30.16 in 10.0 mi NE 4.6 mph - N/A   Clear
7:15 AM 13.1 °F 5.4 °F 4.5 °F 68% 30.18 in 10.0 mi NNE 4.6 mph - N/A   Clear
7:35 AM 13.8 °F 6.2 °F 5.0 °F 68% 30.17 in 10.0 mi NE 4.6 mph - N/A   Clear
7:55 AM 14.9 °F 6.1 °F 5.5 °F 66% 30.17 in 10.0 mi ENE 5.8 mph - N/A   Clear
8:15 AM 16.5 °F 8.1 °F 6.3 °F 64% 30.18 in 10.0 mi ENE 5.8 mph - N/A   Clear
8:35 AM 17.4 °F 10.4 °F 5.7 °F 60% 30.19 in 10.0 mi ENE 4.6 mph - N/A   Clear
8:55 AM 19.6 °F 11.7 °F 6.8 °F 58% 30.20 in 10.0 mi East 5.8 mph - N/A   Clear
9:15 AM 21.0 °F 16.2 °F 7.2 °F 55% 30.20 in 10.0 mi ENE 3.5 mph - N/A   Clear
9:35 AM 22.3 °F 16.1 °F 7.5 °F 53% 30.20 in 10.0 mi ENE 4.6 mph - N/A   Clear
9:55 AM 23.5 °F 16.4 °F 7.5 °F 50% 30.21 in 10.0 mi ENE 5.8 mph - N/A   Clear
10:15 AM 26.2 °F 20.7 °F 8.6 °F 47% 30.22 in 10.0 mi NE 4.6 mph - N/A   Clear
10:35 AM 28.2 °F 24.4 °F 9.0 °F 44% 30.21 in 10.0 mi ENE 3.5 mph - N/A   Clear
10:55 AM 30.2 °F - 9.1 °F 41% 30.21 in 10.0 mi Calm Calm - N/A   Clear
11:15 AM 30.0 °F - 8.2 °F 40% 30.21 in 10.0 mi Calm Calm - N/A   Clear
11:35 AM 31.6 °F - 9.1 °F 39% 30.21 in 10.0 mi Calm Calm - N/A   Clear
11:55 AM 32.0 °F - 9.3 °F 39% 30.21 in 10.0 mi Calm Calm - N/A   Clear
12:15 PM 34.7 °F - 10.2 °F 36% 30.20 in 10.0 mi Calm Calm - N/A   Clear
12:35 PM 34.5 °F 29.4 °F 10.0 °F 36% 30.19 in 10.0 mi East 5.8 mph - N/A   Clear
12:55 PM 34.5 °F - 9.9 °F 36% 30.17 in 10.0 mi Calm Calm - N/A   Clear
1:15 PM 36.9 °F - 11.1 °F 35% 30.17 in 10.0 mi Calm Calm - N/A   Clear
1:30 PM 37.0 °F - 10.6 °F 34% 30.16 in 10.0 mi Calm Calm - N/A   Clear
1:55 PM 39.4 °F 36.1 °F 9.3 °F 29% 30.14 in 10.0 mi ENE 4.6 mph - N/A   Clear
2:15 PM 38.3 °F - 7.9 °F 28% 30.13 in 10.0 mi Calm Calm - N/A   Clear
2:35 PM 39.6 °F - 8.1 °F 27% 30.13 in 10.0 mi Calm Calm - N/A   Clear
2:55 PM 41.0 °F 37.1 °F 9.0 °F 27% 30.13 in 10.0 mi NE 5.8 mph - N/A   Clear
3:15 PM 41.2 °F - 9.0 °F 27% 30.13 in 10.0 mi Calm Calm - N/A   Clear
3:35 PM 40.8 °F 38.8 °F 8.4 °F 26% 30.13 in 10.0 mi North 3.5 mph - N/A   Clear
3:50 PM 41.4 °F 39.4 °F 9.5 °F 27% 30.13 in 10.0 mi North 3.5 mph - N/A   Clear
4:15 PM 41.4 °F 38.4 °F 8.8 °F 26% 30.12 in 10.0 mi NE 4.6 mph - N/A   Clear
4:35 PM 41.0 °F 37.1 °F 9.1 °F 27% 30.12 in 10.0 mi ENE 5.8 mph - N/A   Clear
4:55 PM 40.3 °F 38.2 °F 9.5 °F 28% 30.12 in 10.0 mi NNE 3.5 mph - N/A   Clear
5:15 PM 40.1 °F 36.9 °F 9.0 °F 28% 30.11 in 10.0 mi NE 4.6 mph - N/A   Clear
5:35 PM 39.4 °F 37.2 °F 9.7 °F 29% 30.10 in 10.0 mi NE 3.5 mph - N/A   Clear
5:55 PM 38.5 °F 35.0 °F 9.7 °F 31% 30.09 in 10.0 mi ENE 4.6 mph - N/A   Clear
6:15 PM 37.8 °F 35.3 °F 9.3 °F 31% 30.08 in 10.0 mi ENE 3.5 mph - N/A   Clear
6:35 PM 36.9 °F 34.3 °F 9.0 °F 32% 30.08 in 10.0 mi ENE 3.5 mph - N/A   Clear
6:55 PM 36.1 °F 33.5 °F 8.6 °F 32% 30.07 in 10.0 mi ENE 3.5 mph - N/A   Clear
7:15 PM 35.8 °F 33.0 °F 9.0 °F 33% 30.07 in 10.0 mi ENE 3.5 mph - N/A   Clear
7:35 PM 35.6 °F - 10.0 °F 35% 30.07 in 10.0 mi Calm Calm - N/A   Clear
7:55 PM 34.9 °F - 9.1 °F 34% 30.07 in 10.0 mi Calm Calm - N/A   Clear
8:15 PM 34.3 °F - 8.2 °F 34% 30.07 in 10.0 mi Calm Calm - N/A   Clear
8:35 PM 33.4 °F - 10.4 °F 38% 30.07 in 10.0 mi Calm Calm - N/A   Clear
8:55 PM 33.4 °F - 9.1 °F 36% 30.07 in 10.0 mi Calm Calm - N/A   Clear
9:15 PM 32.7 °F - 11.1 °F 41% 30.07 in 10.0 mi Calm Calm - N/A   Clear
9:35 PM 32.2 °F - 11.8 °F 43% 30.07 in 10.0 mi Calm Calm - N/A   Clear
9:55 PM 32.2 °F - 14.4 °F 48% 30.08 in 10.0 mi Calm Calm - N/A   Clear
10:15 PM 31.8 °F - 11.8 °F 44% 30.09 in 10.0 mi Calm Calm - N/A   Clear
10:35 PM 30.9 °F - 10.6 °F 43% 30.10 in 10.0 mi Calm Calm - N/A   Clear
10:55 PM 31.1 °F - 13.1 °F 47% 30.10 in 10.0 mi Calm Calm - N/A   Clear
11:15 PM 31.1 °F - 14.4 °F 50% 30.10 in 10.0 mi Calm Calm - N/A   Clear
11:35 PM 32.0 °F - 13.6 °F 47% 30.11 in 10.0 mi Calm Calm - N/A   Scattered Clouds
11:55 PM 31.5 °F - 14.9 °F 50% 30.11 in 10.0 mi Calm Calm - N/A   Overcast